CW2057 Weather Reports


Display with metric or nautical units.
time (UTC)temp
F
wind
direction
speed
MPH
gust
MPH
rain 1hr
in
rain 24hr
in
rain mn
in
humidity
%
barometer
mb
20260831061123 73 305 0.0 0.0 0.00 0.00 0.00 88 1019.5
20260831060633 73 305 0.0 0.0 0.00 0.00 0.00 86 1019.6
20260831060122 73 305 0.0 0.0 0.00 0.00 0.00 86 1019.7
20260831055653 73 305 0.0 0.0 0.00 0.00 0.00 86 1019.9
20260831055141 74 305 0.0 0.0 0.00 0.00 0.00 85 1019.8
20260831054624 74 305 0.0 0.0 0.00 0.00 0.00 86 1019.9
20260831054114 73 305 0.0 0.0 0.00 0.00 0.00 87 1019.9
20260831053623 73 305 0.0 0.0 0.00 0.00 0.00 86 1019.9
20260831053133 73 305 0.0 0.0 0.00 0.00 0.00 87 1019.9
20260831052643 73 305 0.0 0.0 0.00 0.00 0.00 87 1020.0
20260831052130 73 305 0.0 0.0 0.00 0.00 0.00 87 1019.9
20260831051620 73 305 0.0 0.0 0.00 0.00 0.00 87 1019.9
20260831051149 73 305 0.0 0.0 0.00 0.00 0.00 87 1019.9
20260831050617 73 305 0.0 0.0 0.00 0.00 0.00 86 1019.9
20260831050126 74 305 0.0 0.0 0.00 0.00 0.00 86 1019.9
20260831045636 74 305 0.0 0.0 0.00 0.00 0.00 86 1019.9
20260831045123 74 305 0.0 0.0 0.00 0.00 0.00 86 1019.8
20260831044614 74 305 0.0 0.0 0.00 0.00 0.00 86 1019.9
20260831044122 74 305 0.0 0.0 0.00 0.00 0.00 85 1019.9
20260831043632 74 305 0.0 0.0 0.00 0.00 0.00 84 1020.0
20260831043142 75 305 0.0 0.0 0.00 0.00 0.00 84 1020.0
20260831042625 74 305 0.0 0.0 0.00 0.00 0.00 85 1019.9
20260831042114 74 305 0.0 0.0 0.00 0.00 0.00 85 1020.0
20260831041624 74 305 0.0 0.0 0.00 0.00 0.00 85 1020.1
20260831041113 74 305 0.0 0.0 0.00 0.00 0.00 84 1019.9
20260831040623 75 305 0.0 0.0 0.00 0.00 0.00 85 1020.0
20260831040131 75 305 0.0 0.0 0.00 0.00 0.00 85 1020.0
20260831035621 74 305 0.0 0.0 0.00 0.00 0.00 85 1020.1
20260831035129 74 305 0.0 0.0 0.00 0.00 0.00 85 1020.3
20260831034617 75 305 0.0 0.0 0.00 0.00 0.00 84 1020.2
20260831034125 75 305 0.0 0.0 0.00 0.00 0.00 84 1020.2
20260831033615 74 305 0.0 0.0 0.00 0.00 0.00 84 1020.2
20260831033123 75 305 0.0 0.0 0.00 0.00 0.00 83 1020.0
20260831032613 75 305 0.0 0.0 0.00 0.00 0.00 82 1020.0
20260831032122 76 305 0.0 0.0 0.00 0.00 0.00 82 1020.1
20260831031632 76 305 0.0 0.0 0.00 0.00 0.00 81 1020.3
20260831031121 76 305 0.0 0.0 0.00 0.00 0.00 82 1020.3
20260831030650 75 305 0.0 0.0 0.00 0.00 0.00 82 1020.2
20260831030119 76 317 0.0 1.0 0.00 0.00 0.00 82 1020.3
20260831025628 76 324 0.0 2.0 0.00 0.00 0.00 82 1020.3
20260831025117 76 324 0.0 1.0 0.00 0.00 0.00 82 1020.4
20260831024642 76 312 0.0 0.0 0.00 0.00 0.00 82 1020.5
20260831024131 76 303 0.0 0.0 0.00 0.00 0.00 82 1020.5
20260831023618 76 303 0.0 0.0 0.00 0.00 0.00 82 1020.5
20260831023128 77 280 0.0 0.0 0.00 0.00 0.00 82 1020.6
20260831022616 77 280 0.0 2.0 0.00 0.00 0.00 82 1020.5
20260831022124 77 280 0.0 2.0 0.00 0.00 0.00 81 1020.5
20260831021613 77 299 0.0 2.0 0.00 0.00 0.00 81 1020.5
20260831021122 77 291 0.0 3.0 0.00 0.00 0.00 80 1020.5
20260831020631 77 311 0.0 3.0 0.00 0.00 0.00 80 1020.6
20260831020120 77 298 0.0 0.0 0.00 0.00 0.00 80 1020.5
20260831015630 77 303 0.0 3.0 0.00 0.00 0.00 81 1020.5
20260831015118 77 274 0.0 4.0 0.00 0.00 0.00 81 1020.5
20260831014627 77 296 1.0 4.0 0.00 0.00 0.00 81 1020.5
20260831014115 78 281 0.0 2.0 0.00 0.00 0.00 80 1020.5
20260831013625 78 281 0.0 6.0 0.00 0.00 0.00 80 1020.6
20260831013113 78 297 0.0 6.0 0.00 0.00 0.00 80 1020.5
20260831012623 78 311 0.0 3.0 0.00 0.00 0.00 79 1020.5
20260831012133 78 320 0.0 3.0 0.00 0.00 0.00 80 1020.4
20260831011621 78 288 1.0 6.0 0.00 0.00 0.00 79 1020.5
20260831011130 78 255 0.0 6.0 0.00 0.00 0.00 79 1020.4
20260831010619 79 266 0.0 2.0 0.00 0.00 0.00 79 1020.3
20260831010128 79 200 0.0 4.0 0.00 0.00 0.00 78 1020.3
20260831005653 79 277 0.0 4.0 0.00 0.00 0.00 77 1020.2
20260831005121 80 270 0.0 4.0 0.00 0.00 0.00 76 1020.4
20260831004631 80 308 0.0 4.0 0.00 0.00 0.00 76 1020.2
20260831004121 80 255 1.0 13.0 0.00 0.00 0.00 75 1020.1
20260831003649 81 218 2.0 13.0 0.00 0.00 0.00 74 1020.1
20260831003137 81 91 5.0 15.0 0.00 0.00 0.00 73 1019.9
20260831002644 81 209 3.0 15.0 0.00 0.00 0.00 73 1019.9
20260831002132 81 239 3.0 7.0 0.00 0.00 0.00 73 1019.9
20260831001621 81 269 0.0 0.0 0.00 0.00 0.00 73 1019.8
20260831001149 82 259 0.0 0.0 0.00 0.00 0.00 72 1019.7
20260831000638 82 259 0.0 0.0 0.00 0.00 0.00 71 1019.8
20260831000126 82 259 0.0 3.0 0.00 0.00 0.00 70 1019.7
20260830235615 82 235 0.0 8.0 0.00 0.00 0.00 70 1019.5
20260830235119 82 245 3.0 8.0 0.00 0.00 0.00 71 1019.4
20260830234629 81 219 1.0 4.0 0.00 0.00 0.00 72 1019.4
20260830234117 82 228 0.0 3.0 0.00 0.00 0.00 73 1019.3
20260830233626 81 330 0.0 0.0 0.00 0.00 0.00 72 1019.3
20260830233114 82 330 0.0 0.0 0.00 0.00 0.00 72 1019.4
20260830232623 82 330 0.0 0.0 0.00 0.00 0.00 73 1019.4
20260830232131 81 330 0.0 0.0 0.00 0.00 0.00 73 1019.5
20260830231640 81 330 0.0 0.0 0.00 0.00 0.00 73 1019.5
20260830231128 82 330 0.0 0.0 0.00 0.00 0.00 74 1019.6
20260830230618 82 330 0.0 0.0 0.00 0.00 0.00 72 1019.6
20260830230126 82 330 0.0 0.0 0.00 0.00 0.00 71 1019.6
20260830225615 82 330 0.0 0.0 0.00 0.00 0.00 70 1019.6
20260830225124 83 330 0.0 0.0 0.00 0.00 0.00 70 1019.6
20260830224632 83 330 0.0 0.0 0.00 0.00 0.00 69 1019.6
20260830224122 84 330 0.0 0.0 0.00 0.00 0.00 67 1019.7
20260830223631 85 330 0.0 1.0 0.00 0.00 0.00 65 1019.6
20260830223140 85 330 0.0 1.0 0.00 0.00 0.00 66 1019.5
20260830222625 85 86 0.0 0.0 0.00 0.00 0.00 64 1019.6
20260830222114 86 249 0.0 3.0 0.00 0.00 0.00 64 1019.6
20260830221624 86 321 0.0 4.0 0.00 0.00 0.00 62 1019.5
20260830221133 87 301 2.0 4.0 0.00 0.00 0.00 63 1019.5
20260830220642 86 222 2.0 4.0 0.00 0.00 0.00 64 1019.5
20260830220131 86 342 0.0 2.0 0.00 0.00 0.00 63 1019.5
20260830215620 86 47 0.0 3.0 0.00 0.00 0.00 63 1019.4
20260830215128 87 355 0.0 4.0 0.00 0.00 0.00 63 1019.4
20260830214616 86 301 1.0 4.0 0.00 0.00 0.00 65 1019.4
20260830214126 86 297 0.0 3.0 0.00 0.00 0.00 64 1019.5
20260830213614 86 66 1.0 3.0 0.00 0.00 0.00 62 1019.4
20260830213124 86 276 0.0 2.0 0.00 0.00 0.00 65 1019.4
20260830212613 85 330 0.0 0.0 0.00 0.00 0.00 66 1019.4
20260830212142 85 255 0.0 2.0 0.00 0.00 0.00 66 1019.4
20260830211631 85 324 0.0 2.0 0.00 0.00 0.00 66 1019.5
20260830211121 85 45 0.0 0.0 0.00 0.00 0.00 69 1019.5
20260830210630 84 45 0.0 0.0 0.00 0.00 0.00 70 1019.4
20260830210120 85 45 0.0 3.0 0.00 0.00 0.00 67 1019.4
20260830205630 85 302 1.0 4.0 0.00 0.00 0.00 66 1019.5
20260830205134 85 291 0.0 6.0 0.00 0.00 0.00 65 1019.7
20260830204623 85 285 1.0 8.0 0.00 0.00 0.00 65 1019.6
20260830204131 86 284 1.0 9.0 0.00 0.00 0.00 64 1019.8
20260830203621 86 321 4.0 9.0 0.00 0.00 0.00 63 1019.7
20260830203129 87 12 3.0 7.0 0.00 0.00 0.00 64 1019.8
20260830202617 87 6 2.0 8.0 0.00 0.00 0.00 63 1019.8
20260830202125 87 310 2.0 9.0 0.00 0.00 0.00 62 1019.8
20260830201615 87 305 1.0 9.0 0.00 0.00 0.00 63 1019.8
20260830201124 87 3 1.0 9.0 0.00 0.00 0.00 62 1019.7
20260830200654 88 243 2.0 9.0 0.00 0.00 0.00 63 1019.7
20260830200122 87 228 2.0 8.0 0.00 0.00 0.00 63 1019.6
20260830195631 87 233 3.0 8.0 0.00 0.00 0.00 61 1019.6
20260830195121 87 288 2.0 9.0 0.00 0.00 0.00 61 1019.7
20260830194629 87 213 4.0 9.0 0.00 0.00 0.00 61 1019.7
20260830194118 87 230 2.0 7.0 0.00 0.00 0.00 63 1019.7
20260830193627 87 207 2.0 6.0 0.00 0.00 0.00 63 1019.8
20260830193116 87 122 0.0 9.0 0.00 0.00 0.00 66 1019.9
20260830192625 86 256 1.0 9.0 0.00 0.00 0.00 65 1020.0
20260830192114 86 278 3.0 8.0 0.00 0.00 0.00 64 1020.3
20260830191624 86 47 2.0 11.0 0.00 0.00 0.00 65 1020.4
20260830191128 86 268 5.0 12.0 0.00 0.00 0.00 65 1020.5
20260830190617 86 315 7.0 12.0 0.00 0.00 0.00 63 1020.7
20260830190126 86 212 2.0 9.0 0.00 0.00 0.00 65 1020.8
20260830185636 86 241 5.0 11.0 0.00 0.00 0.00 64 1020.8
20260830185124 86 336 3.0 11.0 0.00 0.00 0.00 65 1020.9
20260830184613 86 286 3.0 9.0 0.00 0.00 0.00 64 1021.0
20260830184123 85 284 3.0 8.0 0.00 0.00 0.00 68 1021.0
20260830183630 84 274 1.0 6.0 0.00 0.00 0.00 68 1021.0
20260830183119 84 1 2.0 7.0 0.00 0.00 0.00 69 1021.0
20260830182628 83 156 0.0 7.0 0.00 0.00 0.00 70 1021.1
20260830182138 84 309 2.0 7.0 0.00 0.00 0.00 69 1021.2
20260830181625 84 332 0.0 5.0 0.00 0.00 0.00 70 1021.3
20260830181115 84 278 1.0 7.0 0.00 0.00 0.00 70 1021.4
20260830180624 83 309 3.0 7.0 0.00 0.00 0.00 69 1021.5
20260830180152 83 334 3.0 10.0 0.00 0.00 0.00 67 1021.5
20260830175620 84 311 2.0 11.0 0.00 0.00 0.00 67 1021.6
20260830175129 83 284 6.0 11.0 0.00 0.00 0.00 67 1021.7
20260830174618 84 324 2.0 9.0 0.00 0.00 0.00 67 1021.8
20260830174123 84 305 2.0 14.0 0.00 0.00 0.00 66 1021.8
20260830173632 85 228 5.0 18.0 0.00 0.00 0.00 65 1021.8
20260830173121 86 313 4.0 18.0 0.00 0.00 0.00 64 1021.8
20260830172630 85 357 4.0 11.0 0.00 0.00 0.00 66 1022.0
20260830172118 85 274 3.0 14.0 0.00 0.00 0.00 66 1021.9
20260830171627 86 220 4.0 14.0 0.00 0.00 0.00 63 1022.1
20260830171117 86 301 3.0 12.0 0.00 0.00 0.00 65 1022.0
20260830170626 86 295 3.0 13.0 0.00 0.00 0.00 64 1022.2
20260830170136 85 340 4.0 9.0 0.00 0.00 0.00 66 1022.2
20260830165625 85 315 3.0 8.0 0.00 0.00 0.00 66 1022.3
20260830165153 85 274 2.0 10.0 0.00 0.00 0.00 68 1022.4
20260830164642 85 320 2.0 11.0 0.00 0.00 0.00 66 1022.4
20260830164130 84 30 2.0 12.0 0.00 0.00 0.00 66 1022.4
20260830163620 84 16 3.0 12.0 0.00 0.00 0.00 66 1022.4
20260830163149 84 224 2.0 11.0 0.00 0.00 0.00 68 1022.4
20260830162653 84 268 3.0 13.0 0.00 0.00 0.00 72 1022.5
20260830162141 84 137 1.0 13.0 0.00 0.00 0.00 68 1022.5
20260830161648 84 226 2.0 12.0 0.00 0.00 0.00 68 1022.6
20260830161136 84 266 5.0 12.0 0.00 0.00 0.00 68 1022.7
20260830160624 84 276 2.0 8.0 0.00 0.00 0.00 70 1022.8
20260830160132 84 165 2.0 9.0 0.00 0.00 0.00 70 1022.8
20260830155642 83 176 4.0 9.0 0.00 0.00 0.00 72 1022.7
20260830155129 82 286 2.0 10.0 0.00 0.00 0.00 73 1022.8
20260830154618 83 165 2.0 10.0 0.00 0.00 0.00 71 1022.8
20260830154147 83 165 2.0 9.0 0.00 0.00 0.00 73 1022.8
20260830153616 82 248 1.0 6.0 0.00 0.00 0.00 75 1022.9
20260830153125 81 170 2.0 9.0 0.00 0.00 0.00 74 1022.8
20260830152651 81 294 3.0 10.0 0.00 0.00 0.00 75 1022.7
20260830152119 80 300 3.0 10.0 0.00 0.00 0.00 75 1022.8
20260830151647 81 335 5.0 11.0 0.00 0.00 0.00 74 1022.7
20260830151115 80 301 2.0 14.0 0.00 0.00 0.00 76 1022.7
20260830150624 80 236 2.0 14.0 0.00 0.00 0.00 75 1022.6
20260830150113 80 232 3.0 13.0 0.00 0.00 0.00 77 1022.5
20260830145623 79 149 4.0 11.0 0.00 0.00 0.00 76 1022.6
20260830145132 79 174 2.0 9.0 0.00 0.00 0.00 76 1022.6
20260830144620 80 302 3.0 9.0 0.00 0.00 0.00 76 1022.7
20260830144129 80 260 2.0 10.0 0.00 0.00 0.00 76 1022.7
20260830143617 80 22 3.0 10.0 0.00 0.00 0.00 77 1022.6
20260830143127 79 261 1.0 10.0 0.00 0.00 0.00 78 1022.6
20260830142616 79 282 2.0 10.0 0.00 0.00 0.00 79 1022.7
20260830142125 79 236 4.0 7.0 0.00 0.00 0.00 79 1022.7
20260830141613 79 209 2.0 11.0 0.00 0.00 0.00 80 1022.7
20260830141122 78 240 7.0 11.0 0.00 0.00 0.00 81 1022.6
20260830140631 77 215 6.0 10.0 0.00 0.00 0.00 82 1022.7
20260830140140 77 244 4.0 8.0 0.00 0.00 0.00 81 1022.9
20260830135624 77 289 1.0 4.0 0.00 0.00 0.00 83 1022.7
20260830135132 76 297 1.0 8.0 0.00 0.00 0.00 84 1022.8
20260830134620 76 198 1.0 15.0 0.00 0.00 0.00 84 1023.0
20260830134129 76 194 4.0 15.0 0.00 0.00 0.00 84 1023.0
20260830133619 75 288 1.0 10.0 0.00 0.00 0.00 84 1023.0
20260830133127 76 302 4.0 10.0 0.00 0.00 0.00 85 1023.1
20260830132615 76 263 2.0 10.0 0.00 0.00 0.00 85 1023.2
20260830132124 75 243 2.0 11.0 0.00 0.00 0.00 87 1023.1
20260830131632 74 206 3.0 11.0 0.00 0.00 0.00 87 1023.2
20260830131121 74 209 2.0 9.0 0.00 0.00 0.00 87 1023.3
20260830130629 74 170 4.0 10.0 0.00 0.00 0.00 87 1023.4
20260830130139 74 78 1.0 10.0 0.00 0.00 0.00 87 1023.4
20260830125627 74 237 2.0 7.0 0.00 0.00 0.00 87 1023.5
20260830125116 73 348 0.0 5.0 0.00 0.00 0.00 87 1023.6
20260830124645 73 126 2.0 5.0 0.00 0.00 0.00 87 1023.7
20260830124113 73 193 0.0 5.0 0.00 0.00 0.00 87 1023.6
20260830123622 73 277 1.0 7.0 0.00 0.00 0.00 88 1023.6
20260830123132 73 251 0.0 10.0 0.00 0.00 0.00 88 1023.6
20260830122621 73 248 1.0 11.0 0.00 0.00 0.00 88 1023.6
20260830122146 73 62 3.0 11.0 0.00 0.00 0.00 88 1023.7
20260830121614 72 192 3.0 7.0 0.00 0.00 0.00 89 1023.6
20260830121122 72 214 0.0 7.0 0.00 0.00 0.00 90 1023.7
20260830120631 72 218 0.0 3.0 0.00 0.00 0.00 89 1023.6
20260830120121 71 233 1.0 4.0 0.00 0.00 0.00 90 1023.6
20260830115631 71 126 1.0 4.0 0.00 0.00 0.00 90 1023.6
20260830115120 71 182 0.0 9.0 0.00 0.00 0.00 89 1023.7
20260830114630 71 188 4.0 9.0 0.00 0.00 0.00 89 1023.6
20260830114117 71 250 1.0 8.0 0.00 0.00 0.00 89 1023.6
20260830113627 71 252 2.0 8.0 0.00 0.00 0.00 89 1023.6
20260830113115 71 251 1.0 8.0 0.00 0.00 0.00 89 1023.5
20260830112623 70 249 3.0 6.0 0.00 0.00 0.00 89 1023.5
20260830112133 70 232 0.0 6.0 0.00 0.00 0.00 89 1023.6
20260830111622 70 241 0.0 3.0 0.00 0.00 0.00 88 1023.6
20260830111131 70 278 0.0 3.0 0.00 0.00 0.00 88 1023.6
20260830110640 69 253 1.0 3.0 0.00 0.00 0.00 88 1023.6
20260830110129 69 250 0.0 1.0 0.00 0.00 0.00 87 1023.5
20260830105618 69 358 0.0 0.0 0.00 0.00 0.00 87 1023.6
20260830105123 68 358 0.0 0.0 0.00 0.00 0.00 88 1023.7
20260830104633 68 358 0.0 0.0 0.00 0.00 0.00 87 1023.5
20260830104141 68 358 0.0 0.0 0.00 0.00 0.00 87 1023.4
20260830103630 68 358 0.0 0.0 0.00 0.00 0.00 87 1023.4
20260830103118 68 358 0.0 0.0 0.00 0.00 0.00 87 1023.5
20260830102648 68 328 0.0 0.0 0.00 0.00 0.00 86 1023.5
20260830102115 68 245 0.0 0.0 0.00 0.00 0.00 86 1023.5
20260830101625 68 223 0.0 0.0 0.00 0.00 0.00 85 1023.4
20260830101134 68 266 0.0 0.0 0.00 0.00 0.00 86 1023.3
20260830100621 68 266 0.0 0.0 0.00 0.00 0.00 86 1023.4
20260830100130 68 266 0.0 0.0 0.00 0.00 0.00 85 1023.5
20260830095619 68 266 0.0 0.0 0.00 0.00 0.00 85 1023.4
20260830095129 68 266 0.0 0.0 0.00 0.00 0.00 86 1023.5
20260830094617 67 266 0.0 0.0 0.00 0.00 0.00 87 1023.5
20260830094126 67 266 0.0 0.0 0.00 0.00 0.00 87 1023.6
20260830093616 67 266 0.0 0.0 0.00 0.00 0.00 86 1023.5
20260830093125 68 266 0.0 0.0 0.00 0.00 0.00 85 1023.5
20260830092614 68 266 0.0 0.0 0.00 0.00 0.00 84 1023.4
20260830092116 68 266 0.0 0.0 0.00 0.00 0.00 84 1023.5
20260830091625 68 266 0.0 0.0 0.00 0.00 0.00 85 1023.6
20260830091133 68 266 0.0 0.0 0.00 0.00 0.00 86 1023.5
20260830090623 67 266 0.0 0.0 0.00 0.00 0.00 87 1023.5
20260830090133 67 266 0.0 0.0 0.00 0.00 0.00 87 1023.6
20260830085641 67 266 0.0 0.0 0.00 0.00 0.00 87 1023.5
20260830085130 67 266 0.0 0.0 0.00 0.00 0.00 87 1023.5
20260830084618 67 266 0.0 0.0 0.00 0.00 0.00 86 1023.5
20260830084127 67 266 0.0 0.0 0.00 0.00 0.00 86 1023.5
20260830083615 67 266 0.0 0.0 0.00 0.00 0.00 86 1023.5
20260830083124 67 266 0.0 0.0 0.00 0.00 0.00 86 1023.4
20260830082632 66 266 0.0 0.0 0.00 0.00 0.00 87 1023.6
20260830082122 66 266 0.0 0.0 0.00 0.00 0.00 86 1023.7
20260830081631 66 266 0.0 0.0 0.00 0.00 0.00 86 1023.5
20260830081121 66 266 0.0 0.0 0.00 0.00 0.00 87 1023.5
20260830080630 66 266 0.0 0.0 0.00 0.00 0.00 87 1023.5
20260830080119 66 266 0.0 0.0 0.00 0.00 0.00 87 1023.5
20260830075627 66 266 0.0 0.0 0.00 0.00 0.00 86 1023.5
20260830075117 66 266 0.0 0.0 0.00 0.00 0.00 86 1023.5
20260830074643 66 266 0.0 0.0 0.00 0.00 0.00 86 1023.5
20260830074131 66 266 0.0 0.0 0.00 0.00 0.00 86 1023.5
20260830073620 66 266 0.0 0.0 0.00 0.00 0.00 85 1023.5
20260830073130 66 266 0.0 0.0 0.00 0.00 0.00 85 1023.6
20260830072619 67 266 0.0 0.0 0.00 0.00 0.00 85 1023.7
20260830072127 67 266 0.0 0.0 0.00 0.00 0.00 85 1023.6
20260830071618 67 266 0.0 0.0 0.00 0.00 0.00 85 1023.7
20260830071125 67 266 0.0 0.0 0.00 0.00 0.00 85 1023.8
20260830070635 67 266 0.0 0.0 0.00 0.00 0.00 85 1023.8
20260830070123 67 266 0.0 0.0 0.00 0.00 0.00 85 1023.9
20260830065629 67 266 0.0 0.0 0.00 0.00 0.00 85 1023.9
20260830065118 66 266 0.0 0.0 0.00 0.00 0.00 86 1023.9
20260830064647 66 266 0.0 0.0 0.00 0.00 0.00 86 1023.8
20260830064135 66 266 0.0 0.0 0.00 0.00 0.00 86 1023.9
20260830063644 65 266 0.0 0.0 0.00 0.00 0.00 86 1024.0
20260830063132 65 266 0.0 0.0 0.00 0.00 0.00 86 1023.9
20260830062641 65 266 0.0 0.0 0.00 0.00 0.00 86 1024.0
20260830062150 65 266 0.0 0.0 0.00 0.00 0.00 85 1024.0
20260830061619 65 266 0.0 0.0 0.00 0.00 0.00 85 1024.0